SCP
1 1 1 0 0 0 1 0 0 1 1 1 1 1 1 1 1 1 0 0 0 0 0 0 0 0 0 0 0 0 0 0 0 0 1 1 1 1 1 1 0 0 0
1 1 1 0 1 1 1 1 1 1 1 1 1 1 1 1 1 0 0 0 0 0 0 0 0 0 0 0 0 0 0 0 0 0 0 0 1 1 1 1 0 0 0
0 0 1 1 1 1 1 1 1 1 1 1 1 1 1 1 1 0 0 0 0 0 0 0 0 1 1 1 1 0 0 0 0 0 0 0 0 0 1 1 1 1 1
0 0 1 1 1 1 1 1 1 1 1 1 1 1 1 1 1 0 0 1 0 0 0 1 1 1 1 1 0 0 0 0 0 0 0 0 0 0 1 1 1 1 1
0 0 1 1 1 1 1 1 1 1 1 1 1 1 1 0 0 0 0 0 0 0 1 1 0 0 0 0 0 0 0 0 0 0 0 0 0 1 1 1 1 1 1
1 1 1 1 1 1 1 1 1 1 1 1 1 1 1 0 0 0 0 0 0 0 1 0 0 0 0 0 0 0 0 0 0 0 0 0 0 0 0 0 0 0 1
1 1 1 1 1 1 1 1 1 2 2 1 1 1 1 1 0 0 0 0 0 0 0 0 0 0 0 0 0 0 0 0 0 0 0 0 0 0 0 0 0 0 0
2 2 2 2 2 2 2 2 2 3 2 2 2 1 2 1 1 0 0 0 0 0 0 0 0 0 0 0 0 0 0 0 0 0 0 0 0 0 0 0 0 0 0
3 3 3 3 3 3 3 3 3 3 3 2 2 2 2 2 1 0 0 0 0 0 0 0 0 0 0 0 0 0 0 0 0 0 0 0 0 0 0 0 0 0 0
3 4 4 4 5 5 4 4 3 3 3 2 2 2 3 2 1 0 0 0 0 0 0 0 0 0 0 0 0 0 0 0 0 0 0 0 0 0 0 0 0 0 0
5 5 5 6 7 6 5 4 4 3 2 2 2 2 3 2 1 0 0 0 0 0 0 0 0 0 0 0 0 0 0 0 0 0 0 0 0 0 0 0 0 0 0
6 6 7 7 7 5 5 5 4 3 3 2 2 3 2 2 1 0 0 0 0 0 0 0 0 0 0 0 0 0 0 0 0 0 0 0 0 0 0 0 0 0 0
6 7 7 7 6 6 5 5 4 3 3 2 2 2 2 2 2 1 1 0 0 0 0 0 0 0 0 0 0 0 0 0 0 0 0 0 0 0 0 0 0 0 0
6 6 6 6 7 7 6 5 4 3 3 2 2 2 2 2 2 2 1 1 0 0 0 0 0 0 0 0 0 0 0 0 0 0 0 0 0 0 0 0 0 0 0
6 5 5 5 5 6 5 4 3 3 2 2 2 2 1 1 1 1 1 1 1 0 0 0 0 0 0 0 0 0 0 0 0 0 0 0 0 0 0 0 0 0 0
5 4 3 3 3 3 3 3 2 2 1 1 1 1 1 0 0 0 0 0 0 0 0 0 0 0 0 0 0 0 0 0 0 0 0 0 0 0 1 1 1 0 0
4 3 2 2 2 2 2 2 2 1 1 0 0 0 0 0 0 0 0 0 0 0 0 0 0 0 0 0 0 0 0 0 0 0 0 0 0 1 1 1 0 0 0
3 2 2 2 2 2 2 2 2 2 2 1 1 0 0 0 0 0 0 0 0 0 0 0 0 0 0 0 0 0 0 0 0 0 0 0 0 0 0 0 0 0 0
2 2 2 2 1 2 2 2 2 2 2 2 1 1 0 0 0 0 0 0 0 0 0 0 0 0 0 0 0 0 0 0 0 0 0 0 0 0 0 0 0 0 0
2 1 1 1 1 1 1 1 1 1 1 1 1 1 1 1 0 0 0 0 0 0 0 0 0 0 0 0 0 0 0 0 0 0 0 0 0 0 0 0 0 0 0
1 1 1 1 1 1 1 1 1 1 1 1 1 1 1 1 1 1 1 1 1 1 1 0 0 0 0 0 0 0 0 0 0 0 0 0 0 0 0 0 0 0 0
1 1 1 0 1 1 1 1 1 1 1 1 1 1 0 0 0 1 1 1 1 1 1 0 0 0 0 0 0 0 0 0 0 0 0 0 0 0 0 0 0 0 0
1 0 0 0 0 0 0 0 0 0 1 1 1 1 0 0 0 0 1 0 0 0 0 0 0 0 0 0 0 0 0 0 0 0 0 0 0 0 0 0 0 0 0
0 0 0 0 1 0 0 0 0 0 0 0 0 0 0 0 0 0 0 0 0 0 0 0 0 0 0 0 0 0 0 0 0 0 0 0 0 0 0 0 0 0 0
0 0 0 0 0 0 0 0 0 0 0 0 0 0 0 0 0 0 0 0 0 0 0 0 0 0 0 0 0 0 0 0 0 0 0 0 0 0 0 0 0 0 0
0 0 0 0 0 0 0 0 0 0 0 0 0 0 0 0 0 0 0 0 0 0 0 0 0 0 0 0 0 0 0 0 0 0 0 0 0 0 0 0 0 0 0
Wind_Speed
4 4 2 2 3 3 4 4 5 4 4 4 5 5 5 6 6 5 6 6 6 6 6 7 6 6 5 4 4 4 4 4 6 5 4 4 3 4 3 4 4 4 5
6 5 5 4 4 4 5 4 4 4 4 5 5 5 6 6 6 6 6 7 6 6 6 7 7 7 6 5 5 6 5 5 6 7 6 6 7 6 5 5 5 6 5
7 6 6 6 5 5 5 4 4 4 4 5 5 6 6 6 6 6 6 7 7 7 7 7 7 7 6 5 5 6 5 7 5 6 6 5 5 5 5 5 6 5 6
6 6 6 6 5 5 4 4 4 4 5 5 6 6 6 6 7 7 7 7 6 6 7 7 7 7 7 7 7 6 6 6 6 6 6 6 5 6 5 5 5 4 5
5 5 5 5 5 5 5 4 4 5 7 5 5 6 6 7 8 6 5 7 5 6 6 7 8 10 10 8 8 6 5 5 5 5 6 6 5 4 4 4 4 4 4
5 5 5 4 4 5 5 5 5 5 5 5 6 7 8 8 4 3 4 6 6 7 8 7 9 10 12 14 15 13 11 8 7 6 6 6 6 6 5 5 4 4 4
7 6 6 5 6 5 6 5 5 5 5 5 6 7 7 8 9 9 9 7 7 7 8 8 10 11 9 7 9 13 14 17 15 10 9 9 8 7 6 6 6 6 5
8 8 7 6 6 6 5 5 5 4 5 5 6 7 7 9 10 10 11 9 9 9 9 10 10 10 11 8 7 7 7 9 11 12 11 11 11 8 7 6 7 7 6
9 8 8 7 6 5 5 5 5 5 5 6 7 7 8 8 9 11 10 7 8 10 10 10 10 9 11 10 8 8 8 8 11 14 15 15 16 14 9 5 6 6 7
9 8 7 6 6 5 5 5 5 5 6 7 8 7 8 8 9 11 11 7 8 8 8 8 12 11 10 10 8 8 8 8 8 9 8 10 12 13 14 10 8 8 7
7 7 7 6 6 6 6 5 6 7 7 8 8 8 8 10 10 12 13 8 8 8 7 6 5 5 7 9 9 8 9 8 6 7 7 7 7 7 9 10 10 10 9
5 6 6 6 7 7 7 6 7 7 8 9 9 10 8 8 10 11 14 15 12 8 7 7 4 3 5 8 8 10 11 9 7 8 8 8 7 7 7 8 10 11 10
5 6 6 6 6 6 6 7 8 8 9 9 8 7 6 4 5 10 12 14 15 10 8 10 9 9 8 8 14 15 11 8 8 9 9 9 7 7 6 6 7 8 10
6 6 6 6 7 8 7 8 9 9 8 7 6 5 4 4 3 2 3 5 9 10 9 10 12 14 13 13 11 10 9 10 10 9 8 8 7 6 6 6 5 5 6
5 6 7 8 9 8 9 9 9 8 8 7 6 5 6 6 3 2 2 4 4 3 4 6 8 8 7 7 8 8 8 8 10 10 9 8 7 7 7 6 5 5 6
6 7 8 8 8 9 9 9 14 15 15 16 15 12 8 9 8 9 8 8 6 3 3 8 9 9 8 8 7 7 7 7 8 8 8 8 8 8 7 6 6 6 6
7 8 9 10 10 9 8 7 7 9 15 16 17 17 16 14 12 12 11 8 7 6 6 9 9 9 8 7 7 7 7 7 7 7 8 8 8 7 7 6 6 6 7
10 11 11 9 10 10 9 8 7 7 7 6 11 17 18 17 17 16 11 5 7 8 9 9 9 8 8 7 7 6 6 6 6 6 7 7 7 7 7 7 7 8 7
11 10 10 10 11 10 9 9 9 8 8 6 5 6 13 15 15 14 9 7 9 9 8 8 8 8 7 6 6 6 6 6 7 6 7 7 7 7 7 7 7 9 8
9 14 13 11 12 11 9 9 8 7 7 6 5 5 4 5 6 7 8 9 9 9 8 7 6 6 6 5 5 5 5 6 7 7 6 6 6 6 7 8 7 7 7
11 13 15 13 11 10 9 9 8 7 6 6 6 4 3 5 6 6 5 6 7 7 6 6 5 5 5 5 5 6 7 6 6 6 6 6 6 6 6 6 7 7 6
11 12 12 12 11 10 10 9 9 8 7 6 6 4 4 5 6 4 4 4 4 3 3 4 5 5 4 5 4 5 6 6 6 6 6 6 6 6 6 6 7 6 6
12 13 13 12 11 11 10 9 8 7 6 5 6 4 4 4 3 3 4 4 3 3 3 3 4 5 4 4 4 5 5 6 6 6 6 6 6 6 6 7 8 7 8
13 14 14 12 11 10 10 8 7 7 7 5 4 3 4 3 3 3 3 3 4 4 4 4 4 6 7 6 5 4 4 4 5 6 7 7 6 6 6 6 7 8 8
13 13 13 12 11 10 9 9 8 6 5 5 3 3 3 3 3 2 3 3 4 4 5 5 4 5 7 8 6 4 3 4 5 5 6 6 7 7 7 7 7 7 7
13 12 11 10 10 10 9 8 7 6 5 4 4 3 3 4 4 3 3 3 4 4 5 5 6 6 7 6 5 3 3 4 4 5 5 6 6 6 6 6 8 7 7
Wind_Direction
201 206 231 223 235 236 233 240 248 256 268 272 270 269 271 270 268 261 260 266 267 266 267 267 263 263 266 275 282 283 281 277 277 284 287 292 276 273 262 251 257 250 247
193 193 200 212 227 242 252 250 252 256 261 268 269 270 271 273 270 271 272 274 271 270 268 268 267 266 259 257 263 270 273 273 274 278 280 281 274 264 253 248 257 257 251
187 188 198 208 221 228 239 251 258 263 266 270 271 272 273 274 272 267 264 266 266 268 269 269 268 267 265 261 262 265 273 278 279 279 281 274 270 267 260 253 253 254 253
186 191 200 207 222 231 236 241 250 259 263 265 266 269 272 274 273 268 265 265 264 265 265 266 267 264 261 260 261 256 261 267 274 278 277 274 270 264 258 249 253 243 243
189 202 206 207 214 223 232 237 243 252 265 266 270 272 271 270 268 269 266 270 277 283 279 274 270 267 260 254 260 261 269 272 275 277 276 277 274 274 271 262 262 257 240
194 211 214 212 220 226 231 237 242 246 254 260 268 272 272 274 272 255 259 283 284 280 278 276 276 271 260 245 243 245 247 254 262 268 275 278 286 298 310 309 300 294 277
193 207 213 212 220 225 237 243 248 257 263 262 264 267 269 270 262 245 238 252 265 268 270 272 275 275 282 266 248 243 244 245 243 248 260 267 275 285 306 313 310 305 291
198 206 210 213 222 223 227 237 244 249 257 262 264 267 268 270 263 245 238 244 260 262 261 260 262 265 270 269 271 263 252 248 241 237 240 248 256 264 270 279 285 288 279
204 205 209 212 218 223 232 237 242 247 255 260 264 261 262 264 256 242 232 250 258 261 260 261 259 257 254 247 248 256 260 262 260 251 235 236 239 243 245 261 272 277 279
206 203 203 204 210 222 234 241 246 249 256 263 263 259 261 265 260 240 225 245 258 263 263 260 259 257 255 235 234 246 254 258 266 278 267 253 247 246 237 233 242 253 264
202 199 196 196 202 216 226 230 238 246 254 259 265 265 260 258 258 240 223 233 251 262 269 273 274 272 253 239 236 246 252 262 274 273 271 265 253 243 237 227 221 227 238
203 205 203 200 214 221 214 223 233 242 254 256 255 257 254 247 245 238 222 222 238 253 264 272 275 275 262 251 243 247 251 255 260 262 260 257 252 248 241 231 222 218 221
210 212 214 215 218 225 228 234 238 238 246 254 255 255 255 245 236 231 221 223 231 239 258 269 279 270 265 255 246 245 246 245 247 251 253 253 250 250 250 247 237 226 224
222 224 226 229 232 233 232 237 241 245 247 251 255 264 274 270 261 217 207 220 230 239 255 268 268 259 249 252 255 242 232 236 239 245 249 252 252 248 246 243 240 231 225
245 246 248 247 245 243 239 238 240 244 247 250 261 267 271 273 250 171 252 277 286 312 308 279 271 266 256 249 245 241 235 230 232 238 245 250 252 250 243 237 235 229 228
270 264 262 259 255 251 248 245 232 232 237 230 230 236 247 248 243 244 247 246 246 245 260 265 266 265 264 262 262 256 246 240 239 236 236 240 245 247 244 232 227 224 228
295 284 275 272 270 266 260 255 256 241 235 236 234 234 235 245 251 252 253 257 249 208 234 254 258 260 263 264 262 258 256 248 242 240 237 236 238 243 242 236 227 222 223
310 295 284 277 276 275 270 264 260 261 259 245 231 228 232 238 244 249 250 252 252 220 233 246 254 256 258 259 261 259 256 255 248 242 241 237 233 232 233 232 229 223 219
310 300 295 291 286 280 276 271 267 265 266 265 257 229 223 231 239 245 226 229 249 255 250 247 248 251 253 253 257 260 258 256 253 246 240 237 234 231 229 228 226 224 220
302 296 298 296 289 283 278 273 271 272 273 271 265 262 237 220 234 231 213 223 239 252 260 263 260 258 256 254 259 261 259 257 255 249 242 236 233 231 230 229 227 222 216
312 310 306 299 294 292 289 283 280 276 274 277 276 269 255 253 257 254 242 231 238 251 260 269 269 268 266 255 253 258 261 259 255 251 245 235 231 230 228 227 226 223 218
313 310 311 309 306 301 295 288 280 275 275 281 282 266 238 254 267 274 277 274 268 259 264 274 282 276 267 261 259 260 262 262 260 254 244 241 238 234 227 226 225 219 213
314 310 307 304 302 300 296 291 289 283 277 273 275 278 263 263 270 278 283 291 298 293 285 280 282 283 280 271 266 260 261 264 262 261 254 244 239 234 228 222 222 219 213
312 309 307 305 305 303 300 297 295 289 285 282 281 283 284 283 282 285 295 308 305 300 295 296 294 296 296 291 275 265 266 278 285 274 259 251 245 237 230 226 223 221 218
312 311 310 309 308 306 305 302 297 295 299 299 307 310 309 315 313 320 330 329 321 315 317 313 300 299 297 291 288 284 283 283 281 289 276 257 247 242 236 230 223 223 220
318 319 320 319 316 312 307 307 310 319 326 332 338 335 335 333 329 327 333 337 326 320 317 311 310 311 313 308 303 295 285 278 274 275 270 260 251 242 238 234 226 219 217